Time,TemperatureF,DewpointF,PressureIn,WindDirection,WindDirectionDegrees,WindSpeedMPH,WindSpeedGustMPH,Humidity,HourlyPrecipIn,Conditions,Clouds,dailyrainin,SoftwareType,DateUTC
2013-03-26 00:00:00,35.8,25.5,29.66,SE,135,0.0,0.0,67,0.00,,,0.00,WUHU21423XXSP,2013-03-26 04:00:00,
2013-03-26 00:02:00,36.0,26.0,29.66,SE,135,0.0,0.0,67,0.00,,,0.00,WUHU21423XXSP,2013-03-26 04:02:00,
2013-03-26 00:07:00,36.7,26.0,29.66,SE,135,0.0,0.0,65,0.00,,,0.00,WUHU21423XXSP,2013-03-26 04:07:00,
2013-03-26 00:13:00,36.1,26.0,29.66,SSW,202,0.0,1.6,65,0.00,,,0.00,WUHU21423XXSP,2013-03-26 04:13:00,
2013-03-26 00:20:00,35.8,25.9,29.66,SSW,202,0.0,1.6,67,0.00,,,0.00,WUHU21423XXSP,2013-03-26 04:20:00,
2013-03-26 00:26:00,35.1,25.7,29.66,SSE,157,0.0,0.0,69,0.00,,,0.00,WUHU21423XXSP,2013-03-26 04:26:00,
2013-03-26 00:30:00,36.0,26.0,29.67,SSW,202,0.0,0.0,67,0.00,,,0.00,WUHU21423XXSP,2013-03-26 04:30:00,
2013-03-26 00:37:00,35.6,26.2,29.67,ESE,112,2.5,2.5,68,0.00,,,0.00,WUHU21423XXSP,2013-03-26 04:37:00,
2013-03-26 00:43:00,35.2,25.7,29.66,East,90,1.8,2.5,68,0.00,,,0.00,WUHU21423XXSP,2013-03-26 04:43:00,
2013-03-26 00:50:00,35.8,26.2,29.67,East,90,0.0,4.9,68,0.00,,,0.00,WUHU21423XXSP,2013-03-26 04:50:00,
2013-03-26 00:56:00,35.2,26.1,29.67,East,90,0.0,4.9,69,0.00,,,0.00,WUHU21423XXSP,2013-03-26 04:56:00,
2013-03-26 01:01:00,35.2,26.1,29.68,SSE,157,0.0,2.9,69,0.00,,,0.00,WUHU21423XXSP,2013-03-26 05:01:00,
2013-03-26 01:07:00,35.4,26.2,29.68,South,180,4.5,4.5,69,0.00,,,0.00,WUHU21423XXSP,2013-03-26 05:07:00,
2013-03-26 01:13:00,37.6,27.3,29.69,WNW,292,0.0,4.5,67,0.00,,,0.00,WUHU21423XXSP,2013-03-26 05:13:00,
2013-03-26 01:20:00,37.4,27.1,29.69,West,270,0.0,4.5,66,0.00,,,0.00,WUHU21423XXSP,2013-03-26 05:20:00,
2013-03-26 01:26:00,37.0,26.9,29.69,West,270,0.0,0.9,66,0.00,,,0.00,WUHU21423XXSP,2013-03-26 05:26:00,
2013-03-26 01:32:00,36.9,26.4,29.69,West,270,0.0,0.0,66,0.00,,,0.00,WUHU21423XXSP,2013-03-26 05:32:00,
2013-03-26 01:39:00,36.3,26.2,29.68,West,270,0.0,0.0,66,0.00,,,0.00,WUHU21423XXSP,2013-03-26 05:39:00,
2013-03-26 01:45:00,35.8,26.0,29.69,NNW,337,0.0,0.0,67,0.00,,,0.00,WUHU21423XXSP,2013-03-26 05:45:00,
2013-03-26 01:52:00,36.1,25.9,29.69,ENE,67,1.1,2.7,67,0.00,,,0.00,WUHU21423XXSP,2013-03-26 05:52:00,
2013-03-26 01:58:00,36.7,26.7,29.69,WNW,292,0.0,1.1,67,0.00,,,0.00,WUHU21423XXSP,2013-03-26 05:58:00,
2013-03-26 02:05:00,36.1,26.2,29.69,WNW,292,0.0,0.0,67,0.00,,,0.00,WUHU21423XXSP,2013-03-26 06:05:00,
2013-03-26 02:11:00,35.8,26.2,29.69,WNW,292,0.0,0.0,68,0.00,,,0.00,WUHU21423XXSP,2013-03-26 06:11:00,
2013-03-26 02:17:00,35.2,25.7,29.69,SSW,202,3.8,3.8,69,0.00,,,0.00,WUHU21423XXSP,2013-03-26 06:17:00,
2013-03-26 02:24:00,35.8,26.2,29.69,SSW,202,0.0,3.8,68,0.00,,,0.00,WUHU21423XXSP,2013-03-26 06:24:00,
2013-03-26 02:30:00,35.4,26.2,29.69,SSW,202,2.7,3.6,69,0.00,,,0.00,WUHU21423XXSP,2013-03-26 06:30:00,
2013-03-26 02:37:00,34.9,25.7,29.69,SW,225,0.0,3.6,69,0.00,,,0.00,WUHU21423XXSP,2013-03-26 06:37:00,
2013-03-26 02:43:00,34.3,25.8,29.70,SW,225,0.0,0.0,71,0.00,,,0.00,WUHU21423XXSP,2013-03-26 06:43:00,
2013-03-26 02:49:00,34.2,25.7,29.69,SW,225,0.0,0.0,71,0.00,,,0.00,WUHU21423XXSP,2013-03-26 06:49:00,
2013-03-26 02:56:00,33.6,25.8,29.70,West,270,0.0,2.2,73,0.00,,,0.00,WUHU21423XXSP,2013-03-26 06:56:00,
2013-03-26 03:02:00,33.4,25.8,29.70,West,270,0.0,2.2,73,0.00,,,0.00,WUHU21423XXSP,2013-03-26 07:02:00,
2013-03-26 03:09:00,33.1,25.6,29.70,West,270,0.0,0.0,73,0.00,,,0.00,WUHU21423XXSP,2013-03-26 07:09:00,
2013-03-26 03:15:00,33.3,25.8,29.70,SE,135,0.0,1.3,74,0.00,,,0.00,WUHU21423XXSP,2013-03-26 07:15:00,
2013-03-26 03:22:00,33.4,25.8,29.70,SE,135,0.0,1.3,74,0.00,,,0.00,WUHU21423XXSP,2013-03-26 07:22:00,
2013-03-26 03:28:00,33.6,26.1,29.70,WSW,247,0.0,0.0,75,0.00,,,0.00,WUHU21423XXSP,2013-03-26 07:28:00,
2013-03-26 03:34:00,33.4,26.3,29.70,WSW,247,0.0,0.0,75,0.00,,,0.00,WUHU21423XXSP,2013-03-26 07:34:00,
2013-03-26 03:41:00,33.1,26.0,29.70,WSW,247,0.0,0.0,75,0.00,,,0.00,WUHU21423XXSP,2013-03-26 07:41:00,
2013-03-26 03:47:00,33.3,26.4,29.70,West,270,0.0,0.0,76,0.00,,,0.00,WUHU21423XXSP,2013-03-26 07:47:00,
2013-03-26 03:54:00,33.3,26.6,29.70,WSW,247,0.0,0.0,76,0.00,,,0.00,WUHU21423XXSP,2013-03-26 07:54:00,
2013-03-26 04:00:00,32.9,26.1,29.70,West,270,0.0,0.0,76,0.00,,,0.00,WUHU21423XXSP,2013-03-26 08:00:00,
2013-03-26 04:07:00,32.9,26.4,29.71,West,270,0.0,0.0,77,0.00,,,0.00,WUHU21423XXSP,2013-03-26 08:07:00,
2013-03-26 04:13:00,32.5,26.3,29.70,West,270,0.0,0.0,77,0.00,,,0.00,WUHU21423XXSP,2013-03-26 08:13:00,
2013-03-26 04:19:00,32.7,26.1,29.71,WNW,292,0.0,0.0,78,0.00,,,0.00,WUHU21423XXSP,2013-03-26 08:19:00,
2013-03-26 04:26:00,32.7,26.6,29.71,WNW,292,0.0,0.0,78,0.00,,,0.00,WUHU21423XXSP,2013-03-26 08:26:00,
2013-03-26 04:32:00,33.6,27.1,29.70,SE,135,0.0,0.0,77,0.00,,,0.00,WUHU21423XXSP,2013-03-26 08:32:00,
2013-03-26 04:39:00,33.3,26.8,29.71,ESE,112,0.0,2.5,77,0.00,,,0.00,WUHU21423XXSP,2013-03-26 08:39:00,
2013-03-26 04:45:00,34.3,27.5,29.71,South,180,2.7,4.0,76,0.00,,,0.00,WUHU21423XXSP,2013-03-26 08:45:00,
2013-03-26 04:52:00,34.5,27.3,29.71,South,180,2.2,4.0,75,0.00,,,0.00,WUHU21423XXSP,2013-03-26 08:52:00,
2013-03-26 04:58:00,34.0,27.1,29.71,WNW,292,0.0,2.2,75,0.00,,,0.00,WUHU21423XXSP,2013-03-26 08:58:00,
2013-03-26 05:04:00,33.8,26.6,29.71,WNW,292,1.3,1.3,75,0.00,,,0.00,WUHU21423XXSP,2013-03-26 09:04:00,
2013-03-26 05:11:00,33.6,26.4,29.71,WNW,292,0.0,1.3,75,0.00,,,0.00,WUHU21423XXSP,2013-03-26 09:11:00,
2013-03-26 05:17:00,33.6,26.4,29.72,WNW,292,0.0,2.5,75,0.00,,,0.00,WUHU21423XXSP,2013-03-26 09:17:00,
2013-03-26 05:24:00,33.6,26.4,29.72,WNW,292,0.0,2.5,75,0.00,,,0.00,WUHU21423XXSP,2013-03-26 09:24:00,
2013-03-26 05:30:00,33.8,26.4,29.72,WNW,292,1.6,1.8,75,0.00,,,0.00,WUHU21423XXSP,2013-03-26 09:30:00,
2013-03-26 05:37:00,33.1,26.3,29.72,WNW,292,0.0,1.6,75,0.00,,,0.00,WUHU21423XXSP,2013-03-26 09:37:00,
2013-03-26 05:43:00,33.6,26.4,29.72,NE,45,0.0,0.0,75,0.00,,,0.00,WUHU21423XXSP,2013-03-26 09:43:00,
2013-03-26 05:49:00,32.4,25.6,29.72,WNW,292,0.0,3.1,75,0.00,,,0.00,WUHU21423XXSP,2013-03-26 09:49:00,
2013-03-26 05:58:00,34.2,27.2,29.73,NE,45,6.5,6.5,74,0.00,,,0.00,WUHU21423XXSP,2013-03-26 09:58:00,
2013-03-26 06:05:00,33.1,26.0,29.73,WNW,292,0.0,6.5,75,0.00,,,0.00,WUHU21423XXSP,2013-03-26 10:05:00,
2013-03-26 06:11:00,32.7,26.0,29.74,West,270,0.0,0.0,76,0.00,,,0.00,WUHU21423XXSP,2013-03-26 10:11:00,
2013-03-26 06:17:00,32.9,26.1,29.73,NE,45,0.0,0.0,76,0.00,,,0.00,WUHU21423XXSP,2013-03-26 10:17:00,
2013-03-26 06:24:00,33.4,26.6,29.74,NE,45,0.0,0.0,76,0.00,,,0.00,WUHU21423XXSP,2013-03-26 10:24:00,
2013-03-26 06:30:00,34.3,26.8,29.74,North,0,0.0,5.8,75,0.00,,,0.00,WUHU21423XXSP,2013-03-26 10:30:00,
2013-03-26 06:37:00,35.2,27.7,29.74,SE,135,0.0,1.6,74,0.00,,,0.00,WUHU21423XXSP,2013-03-26 10:37:00,
2013-03-26 06:43:00,35.1,27.2,29.75,SE,135,5.4,5.4,73,0.00,,,0.00,WUHU21423XXSP,2013-03-26 10:43:00,
2013-03-26 06:49:00,34.9,27.0,29.75,NNE,22,0.0,5.4,73,0.00,,,0.00,WUHU21423XXSP,2013-03-26 10:49:00,
2013-03-26 06:56:00,35.8,27.6,29.75,WNW,292,5.8,5.8,72,0.00,,,0.00,WUHU21423XXSP,2013-03-26 10:56:00,
2013-03-26 07:02:00,37.0,27.9,29.75,WNW,292,0.9,5.8,70,0.00,,,0.00,WUHU21423XXSP,2013-03-26 11:02:00,
2013-03-26 07:09:00,37.6,28.4,29.76,WNW,292,0.0,0.9,68,0.00,,,0.00,WUHU21423XXSP,2013-03-26 11:09:00,
2013-03-26 07:15:00,37.8,28.1,29.75,West,270,3.1,3.1,68,0.00,,,0.00,WUHU21423XXSP,2013-03-26 11:15:00,
2013-03-26 07:22:00,38.3,28.3,29.76,WNW,292,0.0,3.1,66,0.00,,,0.00,WUHU21423XXSP,2013-03-26 11:22:00,
2013-03-26 07:28:00,37.6,27.8,29.76,West,270,0.0,3.1,67,0.00,,,0.00,WUHU21423XXSP,2013-03-26 11:28:00,
2013-03-26 07:34:00,37.6,27.6,29.76,NW,315,0.0,0.0,67,0.00,,,0.00,WUHU21423XXSP,2013-03-26 11:34:00,
2013-03-26 07:41:00,38.1,27.7,29.76,West,270,2.0,2.0,66,0.00,,,0.00,WUHU21423XXSP,2013-03-26 11:41:00,
2013-03-26 07:47:00,39.0,28.4,29.76,WSW,247,5.1,5.1,66,0.00,,,0.00,WUHU21423XXSP,2013-03-26 11:47:00,
2013-03-26 07:54:00,39.4,28.5,29.76,North,0,0.7,5.6,65,0.00,,,0.00,WUHU21423XXSP,2013-03-26 11:54:00,
2013-03-26 08:00:00,39.9,28.5,29.77,WNW,292,3.4,3.4,64,0.00,,,0.00,WUHU21423XXSP,2013-03-26 12:00:00,
2013-03-26 08:06:00,40.5,29.2,29.77,NNW,337,0.9,3.4,64,0.00,,,0.00,WUHU21423XXSP,2013-03-26 12:06:00,
2013-03-26 08:13:00,40.8,29.4,29.77,NNW,337,0.0,0.9,64,0.00,,,0.00,WUHU21423XXSP,2013-03-26 12:13:00,
2013-03-26 08:19:00,41.2,29.5,29.77,West,270,2.9,2.9,63,0.00,,,0.00,WUHU21423XXSP,2013-03-26 12:19:00,
2013-03-26 08:26:00,41.2,29.1,29.78,WNW,292,6.0,6.0,62,0.00,,,0.00,WUHU21423XXSP,2013-03-26 12:26:00,
2013-03-26 08:32:00,40.6,28.4,29.78,NW,315,3.8,6.0,62,0.00,,,0.00,WUHU21423XXSP,2013-03-26 12:32:00,
2013-03-26 08:39:00,40.1,28.1,29.78,WNW,292,4.7,4.7,62,0.00,,,0.00,WUHU21423XXSP,2013-03-26 12:39:00,
2013-03-26 08:45:00,40.1,28.1,29.78,NW,315,1.8,4.7,62,0.00,,,0.00,WUHU21423XXSP,2013-03-26 12:45:00,
2013-03-26 08:51:00,40.8,28.6,29.78,WNW,292,5.1,5.1,62,0.00,,,0.00,WUHU21423XXSP,2013-03-26 12:51:00,
2013-03-26 08:58:00,42.1,29.5,29.78,NNW,337,1.6,5.1,62,0.00,,,0.00,WUHU21423XXSP,2013-03-26 12:58:00,
2013-03-26 09:04:00,43.0,30.1,29.79,NE,45,0.0,1.6,60,0.00,,,0.00,WUHU21423XXSP,2013-03-26 13:04:00,
2013-03-26 09:13:00,43.5,30.1,29.79,NW,315,4.5,4.5,59,0.00,,,0.00,WUHU21423XXSP,2013-03-26 13:13:00,
2013-03-26 09:19:00,43.2,29.3,29.79,WNW,292,2.9,4.5,58,0.00,,,0.00,WUHU21423XXSP,2013-03-26 13:19:00,
2013-03-26 09:26:00,42.1,28.7,29.79,NW,315,3.6,4.3,59,0.00,,,0.00,WUHU21423XXSP,2013-03-26 13:26:00,
2013-03-26 09:32:00,41.9,28.9,29.80,North,0,4.3,4.3,60,0.00,,,0.00,WUHU21423XXSP,2013-03-26 13:32:00,
2013-03-26 09:39:00,41.7,28.9,29.80,NNW,337,8.5,8.5,60,0.00,,,0.00,WUHU21423XXSP,2013-03-26 13:39:00,
2013-03-26 09:45:00,42.6,29.7,29.80,WNW,292,4.5,8.5,60,0.00,,,0.00,WUHU21423XXSP,2013-03-26 13:45:00,
2013-03-26 09:51:00,42.6,28.8,29.80,NE,45,5.8,5.8,58,0.00,,,0.00,WUHU21423XXSP,2013-03-26 13:51:00,
2013-03-26 09:58:00,43.0,29.8,29.80,NNW,337,2.7,5.8,59,0.00,,,0.00,WUHU21423XXSP,2013-03-26 13:58:00,
2013-03-26 10:04:00,43.9,29.7,29.80,NNW,337,0.0,2.7,58,0.00,,,0.00,WUHU21423XXSP,2013-03-26 14:04:00,
2013-03-26 10:11:00,44.6,30.3,29.81,NNW,337,2.5,2.5,57,0.00,,,0.00,WUHU21423XXSP,2013-03-26 14:11:00,
2013-03-26 10:17:00,43.7,29.0,29.81,NE,45,4.7,8.7,56,0.00,,,0.00,WUHU21423XXSP,2013-03-26 14:17:00,
2013-03-26 10:23:00,44.6,30.3,29.81,NNW,337,8.9,8.9,57,0.00,,,0.00,WUHU21423XXSP,2013-03-26 14:23:00,
2013-03-26 10:30:00,44.4,29.7,29.81,NNW,337,11.4,11.4,56,0.00,,,0.00,WUHU21423XXSP,2013-03-26 14:30:00,
2013-03-26 10:36:00,44.4,29.7,29.82,NE,45,7.6,11.4,56,0.00,,,0.00,WUHU21423XXSP,2013-03-26 14:36:00,
2013-03-26 10:43:00,44.4,29.7,29.82,WNW,292,3.1,7.6,56,0.00,,,0.00,WUHU21423XXSP,2013-03-26 14:43:00,
2013-03-26 10:49:00,44.2,29.5,29.82,NE,45,3.8,3.8,56,0.00,,,0.00,WUHU21423XXSP,2013-03-26 14:49:00,
2013-03-26 10:56:00,44.4,29.0,29.83,NE,45,3.8,3.8,56,0.00,,,0.00,WUHU21423XXSP,2013-03-26 14:56:00,
2013-03-26 11:02:00,44.6,30.2,29.83,NE,45,5.1,5.1,54,0.00,,,0.00,WUHU21423XXSP,2013-03-26 15:02:00,
2013-03-26 11:09:00,45.0,29.7,29.83,NW,315,6.0,6.3,55,0.00,,,0.00,WUHU21423XXSP,2013-03-26 15:09:00,
2013-03-26 11:15:00,44.2,29.5,29.84,WNW,292,6.9,8.9,56,0.00,,,0.00,WUHU21423XXSP,2013-03-26 15:15:00,
2013-03-26 11:21:00,43.9,29.6,29.84,NE,45,9.8,9.8,57,0.00,,,0.00,WUHU21423XXSP,2013-03-26 15:21:00,
2013-03-26 11:28:00,43.5,29.7,29.84,NE,45,1.6,9.8,58,0.00,,,0.00,WUHU21423XXSP,2013-03-26 15:28:00,
2013-03-26 11:34:00,43.2,29.8,29.84,NE,45,4.7,5.6,59,0.00,,,0.00,WUHU21423XXSP,2013-03-26 15:34:00,
2013-03-26 11:41:00,43.3,30.4,29.85,NNW,337,2.5,10.1,60,0.00,,,0.00,WUHU21423XXSP,2013-03-26 15:41:00,
2013-03-26 11:47:00,43.9,30.9,29.85,North,0,7.4,7.4,60,0.00,,,0.00,WUHU21423XXSP,2013-03-26 15:47:00,
2013-03-26 11:53:00,43.5,31.5,29.85,ENE,67,7.4,7.6,61,0.00,,,0.00,WUHU21423XXSP,2013-03-26 15:53:00,
2013-03-26 12:00:00,43.2,30.6,29.85,NW,315,2.2,10.7,61,0.00,,,0.00,WUHU21423XXSP,2013-03-26 16:00:00,
2013-03-26 12:06:00,43.5,30.9,29.85,North,0,2.2,10.7,61,0.00,,,0.00,WUHU21423XXSP,2013-03-26 16:06:00,
2013-03-26 12:13:00,43.5,30.6,29.85,NE,45,0.0,2.5,60,0.00,,,0.00,WUHU21423XXSP,2013-03-26 16:13:00,
2013-03-26 12:19:00,43.5,30.7,29.86,NE,45,0.0,0.0,59,0.00,,,0.00,WUHU21423XXSP,2013-03-26 16:19:00,
2013-03-26 12:26:00,43.9,30.5,29.85,North,0,3.1,3.1,59,0.00,,,0.00,WUHU21423XXSP,2013-03-26 16:26:00,
2013-03-26 12:32:00,44.2,30.8,29.86,NW,315,4.3,6.7,59,0.00,,,0.00,WUHU21423XXSP,2013-03-26 16:32:00,
2013-03-26 12:38:00,44.8,31.4,29.85,North,0,4.3,6.7,59,0.00,,,0.00,WUHU21423XXSP,2013-03-26 16:38:00,
2013-03-26 12:45:00,45.0,31.1,29.85,NW,315,5.6,5.6,58,0.00,,,0.00,WUHU21423XXSP,2013-03-26 16:45:00,
2013-03-26 12:51:00,46.0,32.0,29.85,NW,315,2.2,6.9,58,0.00,,,0.00,WUHU21423XXSP,2013-03-26 16:51:00,
2013-03-26 12:58:00,47.1,32.6,29.86,North,0,5.8,6.9,57,0.00,,,0.00,WUHU21423XXSP,2013-03-26 16:58:00,
2013-03-26 13:04:00,46.6,31.5,29.86,WNW,292,0.0,5.8,56,0.00,,,0.00,WUHU21423XXSP,2013-03-26 17:04:00,
2013-03-26 13:10:00,47.5,33.0,29.86,WSW,247,0.0,6.9,55,0.00,,,0.00,WUHU21423XXSP,2013-03-26 17:10:00,
2013-03-26 13:17:00,47.1,32.5,29.86,NW,315,0.0,6.9,55,0.00,,,0.00,WUHU21423XXSP,2013-03-26 17:17:00,
2013-03-26 13:23:00,46.6,30.7,29.86,NE,45,7.2,7.2,54,0.00,,,0.00,WUHU21423XXSP,2013-03-26 17:23:00,
2013-03-26 13:30:00,46.6,30.3,29.86,WNW,292,2.2,7.2,53,0.00,,,0.00,WUHU21423XXSP,2013-03-26 17:30:00,
2013-03-26 13:36:00,46.0,30.3,29.86,WNW,292,2.2,4.9,52,0.00,,,0.00,WUHU21423XXSP,2013-03-26 17:36:00,
2013-03-26 13:43:00,46.6,30.7,29.86,NE,45,4.7,4.7,54,0.00,,,0.00,WUHU21423XXSP,2013-03-26 17:43:00,
2013-03-26 13:49:00,47.1,30.3,29.86,NW,315,2.2,4.7,52,0.00,,,0.00,WUHU21423XXSP,2013-03-26 17:49:00,
2013-03-26 13:55:00,47.1,29.9,29.86,NW,315,0.0,4.0,51,0.00,,,0.00,WUHU21423XXSP,2013-03-26 17:55:00,
2013-03-26 14:02:00,47.3,29.6,29.86,WNW,292,2.7,8.1,50,0.00,,,0.00,WUHU21423XXSP,2013-03-26 18:02:00,
2013-03-26 14:08:00,46.9,29.2,29.86,NE,45,4.0,8.1,50,0.00,,,0.00,WUHU21423XXSP,2013-03-26 18:08:00,
2013-03-26 14:15:00,46.6,28.9,29.86,WNW,292,6.0,9.4,50,0.00,,,0.00,WUHU21423XXSP,2013-03-26 18:15:00,
2013-03-26 14:21:00,46.0,28.4,29.86,NW,315,2.2,6.0,50,0.00,,,0.00,WUHU21423XXSP,2013-03-26 18:21:00,
2013-03-26 14:28:00,45.7,28.6,29.86,NW,315,1.1,6.3,51,0.00,,,0.00,WUHU21423XXSP,2013-03-26 18:28:00,
2013-03-26 14:34:00,45.5,28.4,29.86,East,90,6.7,6.7,51,0.00,,,0.00,WUHU21423XXSP,2013-03-26 18:34:00,
2013-03-26 14:40:00,45.7,29.0,29.86,WNW,292,3.8,6.7,51,0.00,,,0.00,WUHU21423XXSP,2013-03-26 18:40:00,
2013-03-26 14:47:00,46.0,28.9,29.86,NNE,22,2.5,6.9,51,0.00,,,0.00,WUHU21423XXSP,2013-03-26 18:47:00,
2013-03-26 14:53:00,46.2,28.6,29.86,WNW,292,5.8,5.8,50,0.00,,,0.00,WUHU21423XXSP,2013-03-26 18:53:00,
2013-03-26 15:00:00,46.2,28.6,29.86,NW,315,4.3,5.8,50,0.00,,,0.00,WUHU21423XXSP,2013-03-26 19:00:00,
2013-03-26 15:06:00,46.8,28.9,29.86,North,0,12.8,12.8,49,0.00,,,0.00,WUHU21423XXSP,2013-03-26 19:06:00,
2013-03-26 15:12:00,46.9,28.7,29.85,NW,315,4.5,12.8,49,0.00,,,0.00,WUHU21423XXSP,2013-03-26 19:12:00,
2013-03-26 15:19:00,48.7,30.4,29.85,NW,315,5.4,5.4,49,0.00,,,0.00,WUHU21423XXSP,2013-03-26 19:19:00,
2013-03-26 15:25:00,47.7,28.3,29.85,NW,315,2.9,5.4,47,0.00,,,0.00,WUHU21423XXSP,2013-03-26 19:25:00,
2013-03-26 15:32:00,47.1,28.9,29.85,NNW,337,0.0,6.0,49,0.00,,,0.00,WUHU21423XXSP,2013-03-26 19:32:00,
2013-03-26 15:38:00,49.3,30.9,29.85,NNW,337,0.9,6.0,49,0.00,,,0.00,WUHU21423XXSP,2013-03-26 19:38:00,
2013-03-26 15:45:00,48.0,29.6,29.85,NW,315,2.5,6.7,47,0.00,,,0.00,WUHU21423XXSP,2013-03-26 19:45:00,
2013-03-26 15:51:00,46.9,27.6,29.86,WNW,292,6.0,6.0,47,0.00,,,0.00,WUHU21423XXSP,2013-03-26 19:51:00,
2013-03-26 15:57:00,46.9,28.2,29.85,NNW,337,5.6,6.0,48,0.00,,,0.00,WUHU21423XXSP,2013-03-26 19:57:00,
2013-03-26 16:04:00,47.1,28.3,29.85,NNW,337,2.5,5.6,48,0.00,,,0.00,WUHU21423XXSP,2013-03-26 20:04:00,
2013-03-26 16:10:00,46.6,27.8,29.86,NE,45,0.0,2.5,48,0.00,,,0.00,WUHU21423XXSP,2013-03-26 20:10:00,
2013-03-26 16:17:00,46.6,28.4,29.86,North,0,3.4,3.4,49,0.00,,,0.00,WUHU21423XXSP,2013-03-26 20:17:00,
2013-03-26 16:23:00,45.9,27.4,29.86,NW,315,2.9,3.4,48,0.00,,,0.00,WUHU21423XXSP,2013-03-26 20:23:00,
2013-03-26 16:30:00,46.2,28.1,29.86,WNW,292,0.0,2.9,49,0.00,,,0.00,WUHU21423XXSP,2013-03-26 20:30:00,
2013-03-26 16:36:00,47.1,28.9,29.86,North,0,0.0,3.4,49,0.00,,,0.00,WUHU21423XXSP,2013-03-26 20:36:00,
2013-03-26 16:42:00,47.1,28.3,29.86,NE,45,6.0,6.0,48,0.00,,,0.00,WUHU21423XXSP,2013-03-26 20:42:00,
2013-03-26 16:49:00,46.6,27.8,29.86,North,0,0.0,6.5,48,0.00,,,0.00,WUHU21423XXSP,2013-03-26 20:49:00,
2013-03-26 16:55:00,47.1,28.0,29.86,NW,315,2.9,6.5,48,0.00,,,0.00,WUHU21423XXSP,2013-03-26 20:55:00,
2013-03-26 17:02:00,47.5,28.4,29.86,North,0,3.1,3.1,47,0.00,,,0.00,WUHU21423XXSP,2013-03-26 21:02:00,
2013-03-26 17:08:00,46.8,27.5,29.87,North,0,1.6,6.9,47,0.00,,,0.00,WUHU21423XXSP,2013-03-26 21:08:00,
2013-03-26 17:14:00,46.6,27.8,29.87,NW,315,1.3,6.9,48,0.00,,,0.00,WUHU21423XXSP,2013-03-26 21:14:00,
2013-03-26 17:21:00,46.2,27.5,29.87,WNW,292,3.8,3.8,48,0.00,,,0.00,WUHU21423XXSP,2013-03-26 21:21:00,
2013-03-26 17:27:00,46.2,27.5,29.87,WNW,292,0.0,3.8,49,0.00,,,0.00,WUHU21423XXSP,2013-03-26 21:27:00,
2013-03-26 17:34:00,46.9,28.2,29.87,WNW,292,3.1,3.1,48,0.00,,,0.00,WUHU21423XXSP,2013-03-26 21:34:00,
2013-03-26 17:40:00,47.3,28.2,29.87,WNW,292,3.1,3.6,48,0.00,,,0.00,WUHU21423XXSP,2013-03-26 21:40:00,
2013-03-26 17:47:00,47.3,28.7,29.87,NNW,337,1.1,4.0,48,0.00,,,0.00,WUHU21423XXSP,2013-03-26 21:47:00,
2013-03-26 17:53:00,46.9,28.3,29.87,North,0,3.1,4.0,48,0.00,,,0.00,WUHU21423XXSP,2013-03-26 21:53:00,
2013-03-26 17:59:00,46.2,27.5,29.88,West,270,2.2,5.1,48,0.00,,,0.00,WUHU21423XXSP,2013-03-26 21:59:00,
2013-03-26 18:06:00,46.0,27.4,29.88,WNW,292,1.1,2.2,48,0.00,,,0.00,WUHU21423XXSP,2013-03-26 22:06:00,
2013-03-26 18:12:00,46.0,27.9,29.88,NNE,22,0.0,7.2,49,0.00,,,0.00,WUHU21423XXSP,2013-03-26 22:12:00,
2013-03-26 18:19:00,46.2,27.9,29.89,NNW,337,4.5,7.2,49,0.00,,,0.00,WUHU21423XXSP,2013-03-26 22:19:00,
2013-03-26 18:25:00,47.1,28.5,29.89,WNW,292,1.3,4.9,49,0.00,,,0.00,WUHU21423XXSP,2013-03-26 22:25:00,
2013-03-26 18:32:00,48.0,29.1,29.89,North,0,2.2,4.0,48,0.00,,,0.00,WUHU21423XXSP,2013-03-26 22:32:00,
2013-03-26 18:38:00,47.8,29.0,29.89,NE,45,0.0,4.0,48,0.00,,,0.00,WUHU21423XXSP,2013-03-26 22:38:00,
2013-03-26 18:44:00,46.9,28.2,29.89,WSW,247,4.0,5.1,48,0.00,,,0.00,WUHU21423XXSP,2013-03-26 22:44:00,
2013-03-26 18:51:00,45.5,27.4,29.90,NNW,337,2.7,5.1,49,0.00,,,0.00,WUHU21423XXSP,2013-03-26 22:51:00,
2013-03-26 18:57:00,44.8,27.3,29.90,NNW,337,0.0,6.3,50,0.00,,,0.00,WUHU21423XXSP,2013-03-26 22:57:00,
2013-03-26 19:04:00,44.2,27.2,29.91,North,0,0.0,2.9,51,0.00,,,0.00,WUHU21423XXSP,2013-03-26 23:04:00,
2013-03-26 19:10:00,43.9,27.1,29.91,NNW,337,2.2,2.2,51,0.00,,,0.00,WUHU21423XXSP,2013-03-26 23:10:00,
2013-03-26 19:16:00,43.7,26.8,29.91,North,0,0.0,2.2,51,0.00,,,0.00,WUHU21423XXSP,2013-03-26 23:16:00,
2013-03-26 19:23:00,43.5,26.8,29.91,North,0,0.0,0.0,52,0.00,,,0.00,WUHU21423XXSP,2013-03-26 23:23:00,
2013-03-26 19:29:00,43.3,26.9,29.91,East,90,1.8,1.8,52,0.00,,,0.00,WUHU21423XXSP,2013-03-26 23:29:00,
2013-03-26 19:38:00,42.8,26.5,29.92,ENE,67,0.0,2.2,52,0.00,,,0.00,WUHU21423XXSP,2013-03-26 23:38:00,
2013-03-26 19:44:00,42.6,26.2,29.92,ENE,67,0.0,2.2,53,0.00,,,0.00,WUHU21423XXSP,2013-03-26 23:44:00,
2013-03-26 19:51:00,42.6,26.6,29.92,NNW,337,3.1,3.1,53,0.00,,,0.00,WUHU21423XXSP,2013-03-26 23:51:00,
2013-03-26 19:57:00,42.8,26.4,29.93,NNW,337,0.0,3.1,52,0.00,,,0.00,WUHU21423XXSP,2013-03-26 23:57:00,
2013-03-26 20:04:00,43.0,26.5,29.93,North,0,2.7,3.1,52,0.00,,,0.00,WUHU21423XXSP,2013-03-27 00:04:00,
2013-03-26 20:10:00,43.2,26.3,29.93,NE,45,4.3,4.3,51,0.00,,,0.00,WUHU21423XXSP,2013-03-27 00:10:00,
2013-03-26 20:17:00,43.3,26.4,29.93,WNW,292,2.9,4.7,51,0.00,,,0.00,WUHU21423XXSP,2013-03-27 00:17:00,
2013-03-26 20:23:00,43.3,26.4,29.94,NNW,337,0.0,4.9,51,0.00,,,0.00,WUHU21423XXSP,2013-03-27 00:23:00,
2013-03-26 20:29:00,43.3,26.4,29.94,WNW,292,0.0,2.0,51,0.00,,,0.00,WUHU21423XXSP,2013-03-27 00:29:00,
2013-03-26 20:36:00,43.2,26.4,29.94,North,0,0.0,3.4,51,0.00,,,0.00,WUHU21423XXSP,2013-03-27 00:36:00,
2013-03-26 20:42:00,43.0,26.3,29.94,NW,315,0.7,0.7,51,0.00,,,0.00,WUHU21423XXSP,2013-03-27 00:42:00,
2013-03-26 20:49:00,42.6,26.2,29.95,NNE,22,0.0,4.7,52,0.00,,,0.00,WUHU21423XXSP,2013-03-27 00:49:00,
2013-03-26 21:32:00,41.7,25.3,29.96,North,0,0.0,2.2,52,0.00,,,0.00,WUHU21423XXSP,2013-03-27 01:32:00,
2013-03-26 21:38:00,41.4,25.4,29.96,North,0,0.0,2.2,53,0.00,,,0.00,WUHU21423XXSP,2013-03-27 01:38:00,
2013-03-26 21:44:00,41.2,25.2,29.97,NNW,337,0.0,1.1,53,0.00,,,0.00,WUHU21423XXSP,2013-03-27 01:44:00,
2013-03-26 21:51:00,40.8,24.9,29.97,NNW,337,0.0,1.1,53,0.00,,,0.00,WUHU21423XXSP,2013-03-27 01:51:00,
2013-03-26 21:57:00,40.6,25.2,29.97,NNW,337,0.0,0.0,54,0.00,,,0.00,WUHU21423XXSP,2013-03-27 01:57:00,
2013-03-26 22:03:00,40.1,25.1,29.97,NNE,22,0.0,0.0,55,0.00,,,0.00,WUHU21423XXSP,2013-03-27 02:03:00,
2013-03-26 22:10:00,40.3,25.3,29.98,NNW,337,0.0,1.1,55,0.00,,,0.00,WUHU21423XXSP,2013-03-27 02:10:00,
2013-03-26 22:16:00,40.3,25.9,29.98,NNW,337,0.0,1.1,56,0.00,,,0.00,WUHU21423XXSP,2013-03-27 02:16:00,
2013-03-26 22:23:00,40.3,25.7,29.98,WNW,292,0.0,4.5,56,0.00,,,0.00,WUHU21423XXSP,2013-03-27 02:23:00,
2013-03-26 22:29:00,39.9,25.6,29.98,WNW,292,0.0,0.0,56,0.00,,,0.00,WUHU21423XXSP,2013-03-27 02:29:00,
2013-03-26 22:36:00,39.4,25.0,29.98,WNW,292,0.0,0.0,56,0.00,,,0.00,WUHU21423XXSP,2013-03-27 02:36:00,
2013-03-26 22:42:00,39.0,25.0,29.98,NW,315,0.0,0.0,57,0.00,,,0.00,WUHU21423XXSP,2013-03-27 02:42:00,
2013-03-26 22:48:00,39.0,25.4,29.98,NW,315,0.0,0.0,58,0.00,,,0.00,WUHU21423XXSP,2013-03-27 02:48:00,
2013-03-26 22:55:00,38.8,25.2,29.98,NW,315,0.0,0.0,58,0.00,,,0.00,WUHU21423XXSP,2013-03-27 02:55:00,
2013-03-26 23:01:00,38.8,25.7,29.98,NW,315,0.0,0.0,59,0.00,,,0.00,WUHU21423XXSP,2013-03-27 03:01:00,
2013-03-26 23:08:00,38.1,25.2,29.98,NW,315,0.0,0.0,59,0.00,,,0.00,WUHU21423XXSP,2013-03-27 03:08:00,
2013-03-26 23:14:00,37.6,25.1,29.98,NW,315,0.0,0.0,60,0.00,,,0.00,WUHU21423XXSP,2013-03-27 03:14:00,
2013-03-26 23:21:00,37.2,25.3,29.98,WNW,292,0.0,0.0,61,0.00,,,0.00,WUHU21423XXSP,2013-03-27 03:21:00,
2013-03-26 23:27:00,37.6,25.7,29.98,WNW,292,0.0,2.2,62,0.00,,,0.00,WUHU21423XXSP,2013-03-27 03:27:00,
2013-03-26 23:33:00,37.2,25.4,29.98,NNE,22,0.0,2.2,62,0.00,,,0.00,WUHU21423XXSP,2013-03-27 03:33:00,
2013-03-26 23:40:00,36.5,25.1,29.98,ESE,112,0.0,0.0,63,0.00,,,0.00,WUHU21423XXSP,2013-03-27 03:40:00,
2013-03-26 23:46:00,36.3,24.9,29.98,WNW,292,0.7,0.7,63,0.00,,,0.00,WUHU21423XXSP,2013-03-27 03:46:00,
2013-03-26 23:53:00,36.7,25.5,29.98,WNW,292,0.0,0.7,64,0.00,,,0.00,WUHU21423XXSP,2013-03-27 03:53:00,
2013-03-26 23:59:00,36.7,25.6,29.99,NNE,22,1.1,1.8,64,0.00,,,0.00,WUHU21423XXSP,2013-03-27 03:59:00,